Weather History for Council Bluffs, IA

Change the Weather History Date:

Tuesday, February 5, 2013

  Actual Average Record
Temperature  
Mean Temperature 37 °F -  
Max Temperature 48 °F 33 °F 62 °F (1999)
Min Temperature 26 °F 19 °F -2 °F (2014)
Degree Days  
Heating Degree Days 28    
Moisture  
Dew Point 27 °F    
Average Humidity 73    
Maximum Humidity 100    
Minimum Humidity 46    
Precipitation  
Precipitation 0.00 in - - ()
Sea Level Pressure  
Sea Level Pressure 29.94 in    
Wind  
Wind Speed 10 mph (West)    
Max Wind Speed 20 mph    
Max Gust Speed 25 mph    
Visibility 9 miles    
Events      
Averages and records for this station are not official NWS values.
T = Trace of Precipitation, MM = Missing Value Source: NWS Daily Summary

Daily Weather History Graph

Daily Weather History Graph

Search for Another Location

Airport:

Trip Planner

Search our weather history database for the weather conditions in past years. The results will help you decide how hot, cold, wet, or windy it might be!

Date:

Astronomy

Feb. 05, 2013 Rise Set
Actual Time 7:29 AM CST 5:45 PM CST
Civil Twilight 7:00 AM CST 6:13 PM CST
Nautical Twilight 6:28 AM CST 6:46 PM CST
Astronomical Twilight 5:55 AM CST 7:18 PM CST
Moon 3:13 AM CST (2/5) 1:02 PM CST (2/5)
Length of Visible Light 11h 13m
Length of Day
10h 15m
Waning Crescent, 26% of the Moon is Illuminated
Feb 5
Waning Crescent
Feb 10
New
Feb 17
First Quarter
Feb 25
Full
Mar 4
Last Quarter

Hourly Weather History & Observations

Time (CST) Temp. Windchill Dew Point Humidity Pressure Visibility Wind Dir Wind Speed Gust Speed Precip Events Conditions
12:15 AM 26.6 °F 17.5 °F 24.8 °F 93% 29.87 in 6.0 mi SSW 9.2 mph - N/A   Overcast
12:35 AM 26.6 °F 18.2 °F 24.8 °F 93% 29.87 in 6.0 mi SSW 8.1 mph - N/A   Overcast
12:55 AM 26.6 °F 16.8 °F 24.8 °F 93% 29.87 in 7.0 mi SSW 10.4 mph - N/A   Overcast
1:15 AM 26.6 °F 17.5 °F 24.8 °F 93% 29.87 in 7.0 mi SSW 9.2 mph - N/A   Overcast
1:35 AM 26.6 °F 16.8 °F 24.8 °F 93% 29.85 in 6.0 mi SSW 10.4 mph - N/A   Overcast
1:55 AM 26.6 °F 16.2 °F 24.8 °F 93% 29.86 in 7.0 mi SW 11.5 mph - N/A   Overcast
2:15 AM 26.6 °F 18.2 °F 24.8 °F 93% 29.85 in 6.0 mi SW 8.1 mph - N/A   Overcast
2:35 AM 26.6 °F 17.5 °F 24.8 °F 93% 29.85 in 6.0 mi SW 9.2 mph - N/A   Overcast
2:55 AM 26.6 °F 16.8 °F 24.8 °F 93% 29.85 in 6.0 mi SW 10.4 mph - N/A   Mostly Cloudy
3:15 AM 26.6 °F 16.2 °F 24.8 °F 93% 29.84 in 6.0 mi SW 11.5 mph 17.3 mph N/A   Mostly Cloudy
3:35 AM 26.6 °F 16.2 °F 24.8 °F 93% 29.83 in 6.0 mi SSW 11.5 mph - N/A   Mostly Cloudy
3:55 AM 26.6 °F 15.7 °F 24.8 °F 93% 29.82 in 6.0 mi SW 12.7 mph - N/A   Mostly Cloudy
4:15 AM 26.6 °F 15.2 °F 24.8 °F 93% 29.82 in 6.0 mi SSW 13.8 mph - N/A   Scattered Clouds
4:35 AM 26.6 °F 14.7 °F 24.8 °F 93% 29.81 in 5.0 mi SW 15.0 mph - N/A   Scattered Clouds
4:55 AM 26.6 °F 15.7 °F 24.8 °F 93% 29.82 in 5.0 mi SW 12.7 mph - N/A   Scattered Clouds
5:15 AM 26.6 °F 16.2 °F 24.8 °F 93% 29.82 in 5.0 mi SW 11.5 mph - N/A   Partly Cloudy
5:35 AM 26.6 °F 15.2 °F 24.8 °F 93% 29.82 in 6.0 mi SW 13.8 mph - N/A   Mostly Cloudy
5:55 AM 26.6 °F 17.5 °F 24.8 °F 93% 29.82 in 6.0 mi SW 9.2 mph - N/A   Overcast
6:15 AM 26.6 °F 18.2 °F 24.8 °F 93% 29.82 in 6.0 mi SW 8.1 mph - N/A   Overcast
6:55 AM 26.6 °F 17.5 °F 26.6 °F 100% 29.83 in 7.0 mi SW 9.2 mph - N/A   Overcast
7:15 AM 26.6 °F 21.2 °F 26.6 °F 100% 29.84 in 7.0 mi SW 4.6 mph - N/A   Mostly Cloudy
7:35 AM 26.6 °F 19.1 °F 26.6 °F 100% 29.84 in 7.0 mi SSW 6.9 mph - N/A   Partly Cloudy
7:55 AM 26.6 °F 21.2 °F 26.6 °F 100% 29.86 in 7.0 mi SW 4.6 mph - N/A   Clear
8:15 AM 26.6 °F 20.0 °F 26.6 °F 100% 29.86 in 6.0 mi SW 5.8 mph - N/A   Clear
8:35 AM 28.4 °F 21.2 °F 26.6 °F 93% 29.87 in 8.0 mi SW 6.9 mph - N/A   Clear
8:55 AM 32.0 °F 26.4 °F 28.4 °F 87% 29.88 in 10.0 mi SW 5.8 mph - N/A   Clear
9:15 AM 33.8 °F 27.7 °F 28.4 °F 81% 29.90 in 10.0 mi WSW 6.9 mph - N/A   Clear
9:35 AM 37.4 °F 31.4 °F 28.4 °F 70% 29.90 in 10.0 mi West 8.1 mph - N/A   Clear
9:55 AM 41.0 °F 35.2 °F 30.2 °F 65% 29.91 in 10.0 mi NW 9.2 mph - N/A   Clear
10:15 AM 42.8 °F 35.8 °F 30.2 °F 61% 29.92 in 10.0 mi NW 13.8 mph - N/A   Clear
10:35 AM 42.8 °F 34.3 °F 30.2 °F 61% 29.92 in 10.0 mi NW 19.6 mph 25.3 mph N/A   Clear
10:55 AM 44.6 °F 37.2 °F 32.0 °F 61% 29.93 in 10.0 mi NW 17.3 mph 24.2 mph N/A   Clear
11:15 AM 44.6 °F 37.4 °F 32.0 °F 61% 29.95 in 10.0 mi NW 16.1 mph 24.2 mph N/A   Clear
11:35 AM 44.6 °F 37.8 °F 32.0 °F 61% 29.95 in 10.0 mi NW 15.0 mph - N/A   Clear
11:55 AM 46.4 °F 41.1 °F 32.0 °F 57% 29.96 in 10.0 mi NW 11.5 mph 23.0 mph N/A   Clear
12:15 PM 46.4 °F 40.7 °F 32.0 °F 57% 29.95 in 10.0 mi NW 12.7 mph 19.6 mph N/A   Clear
12:35 PM 46.4 °F 40.1 °F 32.0 °F 57% 29.96 in 10.0 mi NW 15.0 mph 23.0 mph N/A   Clear
12:55 PM 48.2 °F - 32.0 °F 54% 29.96 in 10.0 mi NW 15.0 mph - N/A   Clear
1:15 PM 46.4 °F 39.5 °F 30.2 °F 53% 29.96 in 10.0 mi NW 17.3 mph - N/A   Clear
1:35 PM 46.4 °F 39.2 °F 30.2 °F 53% 29.96 in 10.0 mi NW 18.4 mph - N/A   Clear
1:55 PM 48.2 °F - 30.2 °F 50% 29.96 in 10.0 mi NW 16.1 mph 23.0 mph N/A   Clear
2:15 PM 48.2 °F - 30.2 °F 50% 29.96 in 10.0 mi NNW 15.0 mph - N/A   Clear
2:35 PM 48.2 °F - 28.4 °F 46% 29.97 in 10.0 mi NNW 13.8 mph 20.7 mph N/A   Clear
2:55 PM 48.2 °F - 28.4 °F 46% 29.97 in 10.0 mi NW 16.1 mph - N/A   Clear
3:15 PM 48.2 °F - 28.4 °F 46% 29.97 in 10.0 mi NW 13.8 mph 21.9 mph N/A   Clear
3:35 PM 48.2 °F - 28.4 °F 46% 29.98 in 10.0 mi NW 12.7 mph - N/A   Clear
3:55 PM 46.4 °F 40.7 °F 26.6 °F 46% 29.98 in 10.0 mi NNW 12.7 mph - N/A   Clear
4:15 PM 46.4 °F 41.1 °F 28.4 °F 50% 29.98 in 10.0 mi NW 11.5 mph 18.4 mph N/A   Clear
4:35 PM 46.4 °F 41.5 °F 26.6 °F 46% 29.99 in 10.0 mi NW 10.4 mph - N/A   Clear
4:55 PM 44.6 °F 39.2 °F 26.6 °F 49% 29.99 in 10.0 mi NNW 10.4 mph 17.3 mph N/A   Clear
5:15 PM 44.6 °F 41.4 °F 26.6 °F 49% 30.00 in 10.0 mi NNW 5.8 mph 12.7 mph N/A   Clear
5:35 PM 42.8 °F 38.0 °F 26.6 °F 53% 30.00 in 10.0 mi North 8.1 mph - N/A   Clear
5:55 PM 41.0 °F 36.4 °F 26.6 °F 57% 30.01 in 10.0 mi NNW 6.9 mph - N/A   Clear
6:15 PM 41.0 °F 38.0 °F 26.6 °F 57% 30.02 in 10.0 mi North 4.6 mph - N/A   Clear
6:35 PM 41.0 °F 38.0 °F 26.6 °F 57% 30.02 in 10.0 mi North 4.6 mph - N/A   Clear
6:55 PM 39.2 °F - 26.6 °F 61% 30.03 in 10.0 mi Calm Calm - N/A   Clear
7:15 PM 39.2 °F - 26.6 °F 61% 30.03 in 10.0 mi Calm Calm - N/A   Clear
7:35 PM 39.2 °F 37.0 °F 26.6 °F 61% 30.04 in 10.0 mi North 3.5 mph - N/A   Clear
7:55 PM 39.2 °F - 26.6 °F 61% 30.04 in 10.0 mi Calm Calm - N/A   Clear
8:35 PM 37.4 °F 34.9 °F 26.6 °F 65% 30.04 in 10.0 mi ENE 3.5 mph - N/A   Clear
9:15 PM 39.2 °F 35.0 °F 26.6 °F 61% 30.05 in 10.0 mi ENE 5.8 mph - N/A   Clear
9:35 PM 37.4 °F 32.8 °F 26.6 °F 65% 30.05 in 10.0 mi ENE 5.8 mph - N/A   Clear
9:55 PM 37.4 °F 32.8 °F 26.6 °F 65% 30.05 in 10.0 mi ENE 5.8 mph - N/A   Clear
10:15 PM 35.6 °F 30.7 °F 26.6 °F 70% 30.06 in 10.0 mi East 5.8 mph - N/A   Clear
10:35 PM 32.0 °F 26.4 °F 26.6 °F 80% 30.06 in 10.0 mi East 5.8 mph - N/A   Clear
10:55 PM 32.0 °F - 26.6 °F 80% 30.07 in 10.0 mi Calm Calm - N/A   Clear
11:15 PM 32.0 °F 25.6 °F 26.6 °F 80% 30.06 in 10.0 mi East 6.9 mph - N/A   Clear
11:35 PM 32.0 °F 24.8 °F 26.6 °F 80% 30.06 in 10.0 mi East 8.1 mph - N/A   Clear
11:55 PM 32.0 °F 24.2 °F 26.6 °F 80% 30.06 in 10.0 mi East 9.2 mph - N/A   Clear